Showing default

ZHUHAI-1 OVS-02, 43440

Orbit data source: Space-Track

ZHUHAI-1 OVS-02, 43440 is a payload satellite owned by Zhuhai Orbita (CN) in SSO that was launched on Thu, 26 Apr 2018 UTC via a CHANG ZHENG 11 launch vehicle from the Jiuquan Satellite Launch Center, China (JSC). Payload-class satellites include a variety of spacecraft equipped with specific instruments for various scientific and technological missions. These include communications satellites like Starlink; space stations such as the ISS; scientific satellites like the Hubble; Earth observation satellites from companies like Planet Labs, Umbra, and HawkEye 360; GPS; miniature CubeSats for education and research; and military/defense satellites.

Loading next visibility...
Identifier
43440, 2018-040B
Orbit
SSO
Country
Flag of CNCN / PRC
Related business
Manufacturer
Harbin
Mission
Operational Commercial Imaging
Bus & Motor
OVS-1, Unknown motor
Mass
95 kg wet, 95 kg dry
Launch date (UTC)
2018-04-26 (8 years ago)
Launch vehicle
CHANG ZHENG 11
Launch site
Jiuquan Satellite Launch Center, China (JSC)
Object type
Payload
Rocket body
Debris
Shape & HBR
Box, 0.5 m
Radar Cross Section
0.375 m², Medium (>0.1 m² and < 1m²)

Expand to show TLE details & history
Last TLE update: 23 hours ago

TLE from 23 hours ago
0 ZHUHAI-1 OVS-02
1 43440U 18040B   26172.49643162  .00005435  00000-0  21998-3 0  9990
2 43440  97.0390 189.4705 0002200 209.5685 150.5430 15.25072832453373
Epoch: 2026-06-21T11:54Z
TLE epoch observation values (Epoch: 2026-06-21T11:54:51.691Z)
Latitude
-0.00003°
Longitude
101.05926°
Altitude
494.99 km
Speed
7.616 km/s
True Right ascension
12h 37m 52s
True Declination
0° 00' 00"
Sunlit
Object was in daylight at epoch
Visualization orbit readout
Latitude
Unknown
Longitude
Unknown
Altitude
Unknown
Speed
Unknown
Apparent Right ascension
Unknown
Apparent Declination
Unknown
Sunlit
N/A
Visualization observer readout
Local Sidereal Time
21:41:10
Azimuth
Unknown
Elevation
Unknown
Doppler factor
Unknown
Orbital elements
Apogee altitude
489.021 km
Perigee altitude
486 km
Semi-major axis
6,865.647 km
Eccentricity
0.00022
Inclination
97.039°
RAAN
189.4705°
Arg. of periapsis
209.5685°
True anomaly
150.55539°
Mean anomaly
150.543°
Eccentric anomaly
150.5492°
Mean motion
3.81523 °/min
Orbital period
94.36 mins
BSTAR
0.00021998
Loading maneuver chart data...
Computing Atmospheric mass density...
Loading historical data...
Loading historical data...
Loading historical data...
Loading historical data...
Loading historical data...
Loading historical data...
Loading historical data...

Documentation

Showing up to 5 results
|